GW3336 Weather Reports


Display with metric or nautical units.
time (UTC)temp
F
wind
direction
speed
MPH
gust
MPH
rain 1hr
in
rain 24hr
in
rain mn
in
humidity
%
barometer
mb
20260502170114 61 266 7.0 9.0 0.00 0.00 0.00 43 1013.2
20260502164101 61 279 3.0 3.0 0.00 0.00 0.00 43 1013.4
20260502163556 60 280 5.0 6.0 0.00 0.00 0.00 43 1013.4
20260502163053 59 239 8.0 10.0 0.00 0.00 0.00 44 1013.6
20260502162550 59 271 8.0 9.0 0.00 0.00 0.00 45 1013.8
20260502162048 58 241 5.0 6.0 0.00 0.00 0.00 47 1013.7
20260502161544 58 223 4.0 6.0 0.00 0.00 0.00 46 1013.9
20260502161042 58 271 6.0 7.0 0.00 0.00 0.00 47 1014.0
20260502160540 57 291 4.0 6.0 0.00 0.00 0.00 49 1013.8
20260502151953 55 241 5.0 7.0 0.00 0.00 0.00 49 1014.6
20260502151449 55 251 4.0 4.0 0.00 0.00 0.00 50 1014.6
20260502150947 56 260 6.0 7.0 0.00 0.00 0.00 49 1014.7
20260502150444 55 236 7.0 9.0 0.00 0.00 0.00 49 1014.6
20260502130329 43 186 4.0 6.0 0.00 0.00 0.00 72 1016.3
20260502123814 41 198 3.0 3.0 0.00 0.00 0.00 73 1016.6
20260502123312 40 190 2.0 3.0 0.00 0.00 0.00 75 1016.4
20260502122808 40 187 3.0 3.0 0.00 0.00 0.00 75 1016.3
20260502122306 40 196 2.0 3.0 0.00 0.00 0.00 75 1016.4
20260502121803 39 185 2.0 2.0 0.00 0.00 0.00 76 1016.4
20260502121300 39 188 2.0 2.0 0.00 0.00 0.00 76 1016.5
20260502120757 38 188 2.0 2.0 0.00 0.00 0.00 77 1016.4
20260502120253 38 194 1.0 1.0 0.00 0.00 0.00 77 1016.3
20260502115751 37 244 0.0 0.0 0.00 0.00 0.00 77 1016.3
20260502115248 37 244 0.0 0.0 0.00 0.00 0.00 77 1016.5
20260502114744 36 260 0.0 0.0 0.00 0.00 0.00 77 1016.8
20260502114241 36 262 0.0 0.0 0.00 0.00 0.00 78 1016.9
20260502113738 36 262 0.0 0.0 0.00 0.00 0.00 78 1016.8
20260502113236 36 262 0.0 0.0 0.00 0.00 0.00 79 1016.7
20260502112734 36 262 0.0 0.0 0.00 0.00 0.00 79 1016.7
20260502112231 36 262 0.0 0.0 0.00 0.00 0.00 80 1016.9
20260502111728 36 261 0.0 0.0 0.00 0.00 0.00 80 1016.7
20260502111226 35 261 0.0 0.0 0.00 0.00 0.00 82 1016.7
20260502110723 34 263 0.0 0.0 0.00 0.00 0.00 83 1016.7
20260502110221 34 263 0.0 0.0 0.00 0.00 0.00 81 1017.1
20260502105719 35 263 0.0 0.0 0.00 0.00 0.00 81 1016.8
20260502105214 35 263 0.0 0.0 0.00 0.00 0.00 80 1017.0
20260502104712 35 263 0.0 0.0 0.00 0.00 0.00 79 1016.8
20260502104210 36 263 0.0 0.0 0.00 0.00 0.00 78 1016.9
20260502103707 36 263 0.0 0.0 0.00 0.00 0.00 79 1017.1
20260502103205 35 278 0.0 0.0 0.00 0.00 0.00 79 1017.0
20260502102701 35 278 0.0 0.0 0.00 0.00 0.00 79 1017.1
20260502102158 34 278 0.0 0.0 0.00 0.00 0.00 80 1017.3
20260502101656 35 279 0.0 0.0 0.00 0.00 0.00 80 1017.3
20260502101154 35 279 0.0 0.0 0.00 0.00 0.00 79 1017.3
20260502100652 35 288 0.0 0.0 0.00 0.00 0.00 79 1017.5
20260502100150 34 288 0.0 0.0 0.00 0.00 0.00 79 1017.4
20260502091124 35 288 0.0 0.0 0.00 0.00 0.00 77 1017.6
20260502090621 35 288 0.0 0.0 0.00 0.00 0.00 77 1017.8
20260502090118 36 288 0.0 0.0 0.00 0.00 0.00 77 1017.5
20260502071516 36 304 0.0 0.0 0.00 0.00 0.00 74 1018.1
20260502071014 35 325 0.0 0.0 0.00 0.00 0.00 74 1018.2
20260502070511 36 326 0.0 0.0 0.00 0.00 0.00 70 1018.2
20260502070009 36 327 0.0 0.0 0.00 0.00 0.00 69 1018.4
20260502065508 35 337 0.0 0.0 0.00 0.00 0.00 70 1018.5
20260502065005 33 337 0.0 0.0 0.00 0.00 0.00 75 1018.5
20260502064504 32 337 0.0 0.0 0.00 0.00 0.00 79 1018.3
20260502064000 32 337 0.0 0.0 0.00 0.00 0.00 78 1018.5
20260502063458 33 337 0.0 0.0 0.00 0.00 0.00 77 1018.5
20260502062955 33 337 0.0 0.0 0.00 0.00 0.00 77 1018.5
20260502062452 32 338 0.0 0.0 0.00 0.00 0.00 77 1018.6
20260502061951 33 337 0.0 0.0 0.00 0.00 0.00 77 1018.3
20260502061449 32 337 0.0 0.0 0.00 0.00 0.00 77 1018.6
20260502060944 32 338 0.0 0.0 0.00 0.00 0.00 78 1018.5
20260502060440 33 337 0.0 0.0 0.00 0.00 0.00 77 1018.3
20260502055936 33 337 0.0 0.0 0.00 0.00 0.00 75 1018.5
20260502055434 33 337 0.0 0.0 0.00 0.00 0.00 74 1018.5
20260502054929 34 337 0.0 0.0 0.00 0.00 0.00 74 1018.3
20260502054426 34 337 0.0 0.0 0.00 0.00 0.00 72 1018.5
20260502053924 34 337 0.0 0.0 0.00 0.00 0.00 72 1018.4
20260502053420 34 337 0.0 0.0 0.00 0.00 0.00 72 1018.6
20260502052918 34 338 0.0 0.0 0.00 0.00 0.00 72 1018.8
20260502052416 33 338 0.0 0.0 0.00 0.00 0.00 72 1018.9
20260502051914 33 338 0.0 0.0 0.00 0.00 0.00 73 1018.9
20260502051412 33 337 0.0 0.0 0.00 0.00 0.00 74 1018.6
20260502050908 33 337 0.0 0.0 0.00 0.00 0.00 75 1018.6
20260502050405 33 337 0.0 0.0 0.00 0.00 0.00 75 1018.8
20260502045903 34 338 0.0 0.0 0.00 0.00 0.00 74 1018.8
20260502045359 34 337 0.0 0.0 0.00 0.00 0.00 72 1018.4
20260502044855 34 337 0.0 0.0 0.00 0.00 0.00 71 1018.5
20260502044346 34 337 0.0 0.0 0.00 0.00 0.00 73 1018.9
20260502043843 34 337 0.0 0.0 0.00 0.00 0.00 73 1018.8
20260502043341 34 337 0.0 0.0 0.00 0.00 0.00 71 1019.0
20260502042840 34 337 0.0 0.0 0.00 0.00 0.00 71 1019.0
20260502042338 35 337 0.0 0.0 0.00 0.00 0.00 71 1019.0
20260502041835 35 337 0.0 0.0 0.00 0.00 0.00 72 1019.0
20260502041332 35 337 0.0 0.0 0.00 0.00 0.00 70 1018.9
20260502040829 35 337 0.0 0.0 0.00 0.00 0.00 70 1019.2
20260502040326 36 337 0.0 0.0 0.00 0.00 0.00 70 1019.0
20260502035822 35 337 0.0 0.0 0.00 0.00 0.00 71 1018.9
20260502035319 36 337 0.0 0.0 0.00 0.00 0.00 71 1019.2
20260502034816 36 338 0.0 0.0 0.00 0.00 0.00 71 1019.1
20260502034315 36 337 0.0 0.0 0.00 0.00 0.00 70 1019.1
20260502033813 36 337 0.0 0.0 0.00 0.00 0.00 70 1019.3
20260502033310 36 338 0.0 0.0 0.00 0.00 0.00 70 1018.9
20260502032807 36 338 0.0 0.0 0.00 0.00 0.00 69 1019.1
20260502032305 36 337 0.0 0.0 0.00 0.00 0.00 69 1019.1
20260502031801 37 337 0.0 0.0 0.00 0.00 0.00 68 1019.0
20260502031259 38 337 0.0 0.0 0.00 0.00 0.00 65 1019.1
20260502030757 38 337 0.0 0.0 0.00 0.00 0.00 65 1019.2
20260502030254 38 337 0.0 0.0 0.00 0.00 0.00 64 1019.3
20260502025752 39 337 0.0 0.0 0.00 0.00 0.00 63 1019.0
20260502025250 39 337 0.0 0.0 0.00 0.00 0.00 62 1019.2
20260502024747 39 337 0.0 0.0 0.00 0.00 0.00 62 1019.1
20260502024245 39 337 0.0 0.0 0.00 0.00 0.00 62 1019.1
20260502023743 40 337 0.0 0.0 0.00 0.00 0.00 61 1019.1
20260502023240 41 337 0.0 0.0 0.00 0.00 0.00 60 1018.9
20260502022738 41 337 0.0 0.0 0.00 0.00 0.00 58 1019.0
20260502022233 41 337 0.0 0.0 0.00 0.00 0.00 58 1019.1
20260502021731 41 337 0.0 0.0 0.00 0.00 0.00 57 1019.1
20260502021228 42 337 0.0 0.0 0.00 0.00 0.00 57 1018.6
20260502020725 43 337 0.0 0.0 0.00 0.00 0.00 56 1018.8
20260502020222 43 337 0.0 0.0 0.00 0.00 0.00 55 1018.5
20260502015720 44 337 0.0 0.0 0.00 0.00 0.00 52 1018.6
20260502015216 44 337 0.0 0.0 0.00 0.00 0.00 55 1018.6
20260502014714 45 337 0.0 0.0 0.00 0.00 0.00 58 1018.6
20260502014211 46 337 0.0 0.0 0.00 0.00 0.00 57 1018.6
20260502013707 47 337 0.0 0.0 0.00 0.00 0.00 53 1018.8
20260502013202 49 337 0.0 0.0 0.00 0.00 0.00 54 1018.6
20260502012659 49 337 0.0 0.0 0.00 0.00 0.00 49 1018.8
20260502012158 49 337 1.0 2.0 0.00 0.00 0.00 47 1018.9
20260502011654 50 333 1.0 2.0 0.00 0.00 0.00 45 1018.9
20260502011150 50 342 2.0 2.0 0.00 0.00 0.00 49 1018.9
20260502010648 50 350 1.0 2.0 0.00 0.00 0.00 49 1018.8
20260502010144 50 340 1.0 1.0 0.00 0.00 0.00 49 1018.9
20260502005641 50 343 1.0 2.0 0.00 0.00 0.00 47 1018.8
20260502005139 50 337 1.0 1.0 0.00 0.00 0.00 50 1018.5
20260502004635 50 325 1.0 2.0 0.00 0.00 0.00 49 1018.6
20260502004131 50 347 2.0 2.0 0.00 0.00 0.00 50 1018.6
20260502003630 50 12 2.0 3.0 0.00 0.00 0.00 45 1018.6
20260502003126 51 336 1.0 2.0 0.00 0.00 0.00 48 1018.6
20260502002622 51 325 2.0 4.0 0.00 0.00 0.00 43 1018.8
20260502002120 51 336 3.0 3.0 0.00 0.00 0.00 46 1018.6
20260502001617 51 329 1.0 2.0 0.00 0.00 0.00 43 1018.5
20260502001115 51 331 2.0 2.0 0.00 0.00 0.00 44 1018.5
20260502000613 51 337 3.0 3.0 0.00 0.00 0.00 43 1018.3
20260502000110 51 333 3.0 3.0 0.00 0.00 0.00 43 1018.6
20260501235605 51 18 2.0 2.0 0.00 0.00 0.00 44 1018.8
20260501235102 51 318 4.0 4.0 0.00 0.00 0.00 44 1018.8
20260501234557 51 338 3.0 4.0 0.00 0.00 0.00 42 1018.6
20260501234055 52 354 4.0 6.0 0.00 0.00 0.00 44 1018.6
20260501233553 52 18 1.0 2.0 0.00 0.00 0.00 41 1018.5
20260501233050 52 337 2.0 2.0 0.00 0.00 0.00 40 1018.4
20260501232546 51 346 4.0 4.0 0.00 0.00 0.00 41 1018.5
20260501232043 51 329 4.0 4.0 0.00 0.00 0.00 43 1018.5
20260501231541 51 334 3.0 4.0 0.00 0.00 0.00 45 1018.6
20260501231039 52 0 4.0 4.0 0.00 0.00 0.00 44 1018.9
20260501230538 51 320 4.0 4.0 0.00 0.00 0.00 46 1018.8
20260501230035 52 9 0.0 1.0 0.00 0.00 0.00 40 1018.6
20260501225532 52 335 4.0 6.0 0.00 0.00 0.00 42 1018.6
20260501225028 51 331 3.0 3.0 0.00 0.00 0.00 44 1018.9
20260501224526 51 340 3.0 4.0 0.00 0.00 0.00 43 1019.0
20260501224023 52 332 4.0 4.0 0.00 0.00 0.00 42 1019.0
20260501223520 52 320 0.0 0.0 0.00 0.00 0.00 42 1018.6
20260501223015 51 328 2.0 2.0 0.00 0.00 0.00 41 1018.9
20260501222512 52 353 4.0 6.0 0.00 0.00 0.00 47 1018.9
20260501222009 51 326 3.0 3.0 0.00 0.00 0.00 42 1019.0
20260501221505 51 15 3.0 3.0 0.00 0.00 0.00 45 1019.1
20260501221003 52 19 5.0 6.0 0.00 0.00 0.00 42 1018.6
20260501220501 51 3 1.0 1.0 0.00 0.00 0.00 42 1018.8
20260501215957 51 354 2.0 3.0 0.00 0.00 0.00 41 1019.1
20260501215454 51 25 3.0 3.0 0.00 0.00 0.00 45 1018.9
20260501214949 51 5 3.0 4.0 0.00 0.00 0.00 44 1019.0
20260501214444 52 332 3.0 3.0 0.00 0.00 0.00 42 1018.8
20260501213940 52 339 2.0 3.0 0.00 0.00 0.00 42 1018.9
20260501213438 51 29 5.0 6.0 0.00 0.00 0.00 42 1019.1
20260501212933 51 6 5.0 6.0 0.00 0.00 0.00 45 1019.1
20260501212430 52 324 5.0 6.0 0.00 0.00 0.00 46 1019.3
20260501211926 52 345 2.0 3.0 0.00 0.00 0.00 41 1019.0
20260501211424 52 334 2.0 2.0 0.00 0.00 0.00 43 1019.1
20260501210921 52 11 0.0 1.0 0.00 0.00 0.00 45 1019.2
20260501210418 52 324 2.0 3.0 0.00 0.00 0.00 41 1019.2
20260501205915 51 334 1.0 2.0 0.00 0.00 0.00 44 1019.3
20260501205412 51 337 4.0 4.0 0.00 0.00 0.00 47 1019.3
20260501204909 51 337 3.0 4.0 0.00 0.00 0.00 45 1019.6
20260501204404 50 357 4.0 6.0 0.00 0.00 0.00 45 1019.2
20260501203901 51 353 1.0 2.0 0.00 0.00 0.00 44 1019.3
20260501203358 49 47 0.0 1.0 0.00 0.00 0.00 45 1019.6
20260501202855 50 6 5.0 6.0 0.00 0.00 0.00 43 1019.5
20260501202352 50 336 3.0 3.0 0.00 0.00 0.00 43 1019.5
20260501201849 50 5 4.0 4.0 0.00 0.00 0.00 42 1019.4
20260501201346 51 11 5.0 7.0 0.00 0.00 0.00 43 1019.5
20260501200842 52 332 2.0 3.0 0.00 0.00 0.00 43 1019.5
20260501200339 51 334 2.0 3.0 0.00 0.00 0.00 45 1019.4
20260501195838 51 324 3.0 3.0 0.00 0.00 0.00 42 1019.6
20260501195333 50 9 2.0 3.0 0.00 0.00 0.00 46 1019.4
20260501194829 51 10 3.0 4.0 0.00 0.00 0.00 49 1019.5
20260501194325 50 13 1.0 2.0 0.00 0.00 0.00 46 1019.7
20260501193821 51 0 4.0 4.0 0.00 0.00 0.00 42 1019.3
20260501193320 50 26 2.0 2.0 0.00 0.00 0.00 42 1019.6
20260501192817 50 332 2.0 2.0 0.00 0.00 0.00 42 1019.5
20260501192314 50 38 3.0 3.0 0.00 0.00 0.00 43 1019.7
20260501191811 50 17 4.0 4.0 0.00 0.00 0.00 44 1019.6
20260501191309 49 359 1.0 1.0 0.00 0.00 0.00 45 1019.8
20260501190805 49 9 5.0 7.0 0.00 0.00 0.00 46 1019.6
20260501190301 49 11 1.0 2.0 0.00 0.00 0.00 48 1019.4
20260501185756 49 326 2.0 3.0 0.00 0.00 0.00 45 1019.6
20260501185252 49 2 3.0 4.0 0.00 0.00 0.00 44 1019.7
20260501184749 49 331 3.0 3.0 0.00 0.00 0.00 45 1019.5
20260501184244 49 354 2.0 2.0 0.00 0.00 0.00 49 1019.8
20260501183740 48 15 3.0 4.0 0.00 0.00 0.00 46 1019.7
20260501183238 48 358 4.0 4.0 0.00 0.00 0.00 43 1019.7
20260501182734 48 22 2.0 3.0 0.00 0.00 0.00 47 1019.8
20260501182231 48 0 5.0 6.0 0.00 0.00 0.00 49 1019.8
20260501181728 48 12 4.0 6.0 0.00 0.00 0.00 51 1019.7
20260501181225 48 31 5.0 7.0 0.00 0.00 0.00 46 1019.8
20260501180723 48 347 2.0 2.0 0.00 0.00 0.00 51 1019.8
20260501180218 48 356 4.0 6.0 0.00 0.00 0.00 45 1019.8
20260501175716 48 19 1.0 2.0 0.00 0.00 0.00 48 1019.9
20260501175213 48 247 2.0 2.0 0.00 0.00 0.00 45 1019.9
20260501174709 48 356 4.0 4.0 0.00 0.00 0.00 47 1019.9
20260501174207 48 5 4.0 6.0 0.00 0.00 0.00 47 1020.0
20260501173704 47 9 4.0 4.0 0.00 0.00 0.00 49 1020.1
20260501173201 47 11 4.0 4.0 0.00 0.00 0.00 47 1019.9
20260501172657 47 0 4.0 7.0 0.00 0.00 0.00 49 1020.0
20260501172152 47 1 3.0 4.0 0.00 0.00 0.00 45 1020.0